sat.trackr.live / text

‹ back to catalog

STARLINK-3884

NORAD 52497 · 2022-049AY

PAYLOAD ACTIVE UNKNOWN

§ Identity

Operator
Country
US
Launch date
2022-05-06
Launch site
AFETR
Launch vehicle
Mass (kg)
RCS (m²)

Purposes: comms

External: N2YO · Heavens-Above · Gunter

§ Orbital elements

Epoch: 2026-05-25T01:25:08.469120Z

Period
95.44 min
Inclination
53.2144°
Eccentricity
0.0001266
Mean motion
15.08839554 rev/d
Perigee alt
538.9 km
Apogee alt
540.6 km
Semi-major
6,917.9 km
B*
-1.2783e-5
RAAN
66.2821°
Arg perigee
89.4964°
Mean anomaly
270.6173°
Rev number
22,392

§ Raw data

STARLINK-38841 52497U 22049AY  26145.05912580 -.00000491  00000+0 -12783-4 0  99922 52497  53.2144  66.2821 0001266  89.4964 270.6173 15.08839554223920

JSON: /api/v1/satellites/52497 · /tle

For live sub-satellite position, see the globe view (requires WebGL).

§ Visibility from observer

Set your observer location to see the next 7 days of passes ≥ 10°. The values pass through the URL so the page stays shareable.

No JS? Fill the form by hand. The geolocation button needs JavaScript.